Погода в Красноселькупе

Погода в Красноселькупе : погода сейчас, прогноз погоды и архив. Всё, что Вы хотите узнать о погоде в Красноселькупе!

Поиск расширенной информации на нашем сайте:

Другие новости

Новости СМИ2

Главная страница сайта

Новости сайта

03.07.2017

Напоминаем, что на нашем специализированном сайте Метеоцентр.Азия вы можете получить высокодетализированные автоматические прогнозы погоды по пунктам России, СНГ и мира в авиационном формате (включающие направление и скорость ветра, видимость, явления погоды, количество и форму облачности, нижнюю и верхнюю границу облачности).


Погода в Красноселькупе - сегодня

Время (UTC), дата Ветер
(°,м/с) 
Видим.   Явления Облачность Т
(°С)
Тd
(°С)
f(%) Тe
(°С)
Pmin
(гПа)
dP
(гПа)
Po
(мм)
O2
(г/м3)
Тmin Tmax R s Состояние
почвы
03 15.04.18 180 (Ю) 4000 м  слаб. ливневой снег  10/10 240 м кучево-дожд. 
[Cb cap]
-6.2 -9.2 79 -10  987.8  -0.9  739  305  -8.9    82  неравномерный
сухой снег
100% 
15 15.04.18 250 (З) 4000 м  слаб. ливневой снег  10/10 270 м кучево-дожд. 
[Cb cap]
-5 -6.5 89 -6  991  0.6  741  305    -2.2  0.1     
00 16.04.18 310 (СЗ) 20000 м    8/0 средняя 
[Ac trans]
-20.1 -22.9 78 -24  995.4  1.9  744  325           
03 16.04.18 310 (СЗ) 20000 м    3/0 средняя 
[Ac trans]
-18.3 -21.9 73 -24  996.4  745  323  -20.7    0.0  81  неравномерный
сухой снег
100% 
06 16.04.18 270 (З) 20000 м    3/0 верхняя 
[Ci fib]
-14.5 -19.5 66 -19  998.4  746  319           
09 16.04.18 270 (З) 20000 м  в посл. час ливневой снег  10/3 300 м верхняя 
[Sc|Cs]
-12.4 -18.4 61 -17  1000.6  2.3  748  317           
12 16.04.18 340 (С) 20000 м  {ливн. осадки}  3/0 верхняя 
[Ci fib]
-13.5 -19 63 -18  1002.2  1.5  749  319           
15 16.04.18 330 (СЗ) 20000 м    3/0 верхняя 
[Ci fib]
-17.6 -21 75 -22  1003.2  750  325    -12.1  0.0     
18 16.04.18 340 (С) 20000 м    ясно 
-21.3 -23.8 80 -26  1003.3  750  329           
00 17.04.18 340 (С) 20000 м    ясно 
-24.9 -27.8 77 -28  1004.1  0.6  751  335           
03 17.04.18 310 (СЗ) 10 км  снежные кристаллы  10/4 300 м средняя 
[St|As trans]
-20.7 -24.4 72 -25  1004.8  0.7  751  329  -25.3    0.0  80  неравномерный
сухой снег
100% 
06 17.04.18 320 (СЗ) 20000 м  {ливн. осадки}  10/4 300 м средняя 
[St|As trans]
-15.1 -20.4 64 -20  1005.6  0.9  752  322           
09 17.04.18 310 (СЗ) 6{11}  20000 м    3/0 верхняя 
[Ci fib]
-14.2 -19.5 64 -20  1007.3  1.7  753  322           
12 17.04.18 320 (СЗ) 5{10}  20000 м    8/0 верхняя 
[Ci fib]
-15.3 -19.9 68 -21  1009.2  1.9  754  324           
15 17.04.18 330 (СЗ) 5{10}  20000 м    10/10 570 м 
[Sc]
-16 -19.7 73 -22  1010.8  1.6  756  325    -13.1  0.0     
21 17.04.18 300 (СЗ) 20000 м    10/10 330 м 
[Sc]
-22 -24.6 79 -25  1012.2  0.6  757  333           
00 18.04.18 270 (З) 20000 м    10/0 верхняя 
[Ci fib]
-21.7 -24.4 79 -26  1012.6  0.4  757  333           
03 18.04.18 250 (З) 20000 м    10/10 300 м кучево-дожд. 
[Cb cap]
-17.9 -21.1 76 -22  1013.1  0.5  757  328  -22      80  неравномерный
сухой снег
100% 
06 18.04.18 240 (ЮЗ) 20000 м  {ливн. осадки}  10/5 300 м средняя 
[Sc|Ac trans]
-11.6 -18.7 56 -17  1012.5  -0.4  757  320           
12 18.04.18 230 (ЮЗ) 20000 м    9/6 300 м средняя 
[Sc|Ac As]
-8.7 -15.6 57 -14  1011.5  -0.1  756  316           
15 18.04.18 220 (ЮЗ) 6{11}  20000 м    9/0 средняя 
[Ac As]
-9.6 -15.1 64 -15  1010.9  -0.7  756  317    -8.3  0.0     
18 18.04.18 210 (ЮЗ) 5{10}  20000 м    9/0 средняя 
[Ac trans]
-11.6 -16.8 65 -17  1009.1  -1.7  754  319           
21 18.04.18 190 (Ю) 20000 м    9/0 средняя 
[Ac trans]
-13.4 -18.1 68 -18  1007.2  -2  753  320           
00 19.04.18 190 (Ю) 20000 м    10/0 средняя 
[Ac As]
-12.3 -17.2 67 -17  1004.5  -2.5  751  318           
03 19.04.18 180 (Ю) 7-11{12}  10 км  снежные кристаллы  10/0 средняя 
[As trans]
-9.6 -15.4 63 -15  1002.4  -2.1  749  314  -13.5    0.0  78  неравномерный
сухой снег
100% 
Время (UTC), дата Ветер
(°,м/с) 
Видим.   Явления Облачность Т
(°С)
Тd
(°С)
f(%) Тe
(°С)
Pmin
(гПа)
dP
(гПа)
Po
(мм)
O2
(г/м3)
Тmin Tmax R s Состояние
почвы

Для получения пояснительной информации подведите курсор к названию столбца.

ПОГОДА в Красноселькупе - архив

Всё, что Вы хотите узнать о погоде в Красноселькупе - удобно и подробно!

Выберите нужную дату (начиная с 1 января 2015* года) и нажмите кнопку "Найти".
Будут отображены архивные сводки погоды по пункту Красноселькуп, начиная с указанной даты.


Отображать данные в формате CSV (для использования в таблицах Excel)


Внимание! Наш архив погоды предназначен исключительно для личного некоммерческого использования в познавательных целях. Если Вам необходимы официальные справки о состоянии погоды (для производственных, юридических, коммерческих и т.п. целей), обращайтесь в органы Росгидромета.

*Примечание: данная дата относится к архиву по метеостанциям СССР (Россия, СНГ, Балтия).
Архив по метеостанциям Зарубежной Европы и Азии (кроме Китая) хранится 10 дней, по другим регионам земного шара (Китай, Африка, Америка, Австралия, Океания) - 1 день.

Красноселькуп - район местоположения метеостанции


Название, широта, долгота, высота метеостанции:
Красноселькуп 65.7°ш. 82.5°д. 60 м над ур. моря [Российская Федерация]

Дополнительная информация

В oтличие oт бoльшинства пoгoдных сайтoв мы публикуем пoдрoбную метеoинфoрмацию в детальнoм прoфессиoнальнoм фoрмате.

Характеристики температуры и влажнoсти вoздуха измеряются на высoте 2 м в тени вдали oт зданий и деревьев.
Скoрoсть ветра измеряется на высoте 10 м (на урoвне рoста челoвека скoрoсть ветра ниже в 1.5-2 раза). Если метеoстанция нахoдится в гoрoде или в лесу, тo скoрoсть ветра занижена на 2-4 м/с пo сравнению с oткрытым местoм. Скoрoсть ветра над акватoриями крупных рек и oзёр, а также на вершинах хoлмoв на 2-5 м/с выше, чем в oбычных услoвиях.
Атмoсфернoе давление в разных тoчках местнoсти мoжет значительнo oтличаться oт давления на метеoстанции, в зависимoсти oт услoвий рельефа (при пoдъёме на 10 м давление пoнижается примернo на 1 мм рт.ст.).